Date String (YYYY-MM-DD hh:mm:ss) UTC,Instrument flags,absolute air pressure of the measurement (hPa),sample flow rate (lpm),inlet stack bypass flow (lpm),air temperature of the measurement (°C),ambient temperature measured by the external sensor (°C),aerosol sample conditioner tube jacket temperature (°C),OPC LED temperature (°C),internal box temperature (°C),relative humidity of the measurement (%),span deviation,mass concentration of particles derived from Lorenz-Mie calculation of OPC scattering (μg/m³),mass concentration of particles derived from Lorenz-Mie calculation of OPC scattering (μg/m³),mass concentration of particles derived from Lorenz-Mie calculation of OPC scattering (μg/m³)
DateTimeUTC,F1_M11,P_M11,Q1_M11,Q2_M11,T1_M11,T2_M11,T3_M11,T4_M11,T5_M11,U1_M11,ZSPAN_M11,X2_M11,X0_M11,X1_M11
2024-01-14 06:00:00,SystemResetWarning,0823.6,5.00,000.00,019.0,018.1,000.0,027.4,020.0,4.0,0001.0,0004.26,0007.20,0003.85
2024-01-14 06:01:00,SystemResetWarning,0823.5,5.00,000.00,019.0,018.0,000.0,027.4,020.0,4.0,0001.8,0004.22,0007.08,0003.81
2024-01-14 06:02:00,SystemResetWarning,0823.5,5.00,000.00,019.0,018.1,000.0,027.4,020.4,4.0,0003.8,0004.15,0006.80,0003.79
2024-01-14 06:03:00,SystemResetWarning,0823.6,5.00,000.00,019.1,018.8,000.0,027.4,020.8,4.0,0003.6,0004.15,0006.76,0003.79
2024-01-14 06:04:00,SystemResetWarning,0823.5,5.00,000.00,019.2,019.1,000.0,027.4,020.8,3.9,0003.2,0004.12,0006.85,0003.79
2024-01-14 06:05:00,SystemResetWarning,0823.4,4.99,000.00,019.2,019.0,000.0,027.4,020.4,3.9,0003.2,0004.11,0006.96,0003.80
2024-01-14 06:06:00,SystemResetWarning,0823.5,4.99,000.00,019.1,018.8,000.0,027.4,020.2,3.9,0003.4,0004.11,0006.99,0003.80
2024-01-14 06:07:00,SystemResetWarning,0823.6,5.00,000.00,019.0,018.6,000.0,027.4,020.0,3.9,0004.0,0004.08,0007.01,0003.79
2024-01-14 06:08:00,SystemResetWarning,0823.5,5.00,000.00,019.0,018.3,000.0,027.4,020.0,3.9,0003.9,0004.07,0007.09,0003.77
2024-01-14 06:09:00,SystemResetWarning,0823.4,5.00,000.00,019.0,018.1,000.0,027.4,020.0,4.0,0003.9,0004.14,0007.17,0003.80
2024-01-14 06:10:00,SystemResetWarning,0823.3,5.00,000.00,018.9,018.0,000.0,027.4,020.0,4.0,0000.2,0004.19,0007.34,0003.82
2024-01-14 06:11:00,SystemResetWarning,0823.4,5.01,000.00,019.0,018.0,000.0,027.4,020.3,3.9,0000.0,0004.18,0007.36,0003.82
2024-01-14 06:12:00,SystemResetWarning,0823.5,5.02,000.00,019.1,018.7,000.0,027.4,020.8,3.9,0000.0,0004.17,0007.35,0003.83
2024-01-14 06:13:00,SystemResetWarning,0823.5,4.99,000.00,019.2,019.1,000.0,027.4,020.8,3.9,0000.0,0004.17,0007.58,0003.82
2024-01-14 06:14:00,SystemResetWarning,0823.3,4.98,000.00,019.2,018.9,000.0,027.4,020.4,3.9,0000.0,0004.17,0007.62,0003.81
2024-01-14 06:15:00,SystemResetWarning,0823.3,5.01,000.00,019.1,018.6,000.0,027.4,020.0,3.9,0004.2,0004.19,0007.59,0003.81
2024-01-14 06:16:00,SystemResetWarning,0823.3,5.00,000.00,019.0,018.3,000.0,027.4,020.0,3.9,0004.3,0004.20,0007.52,0003.81
2024-01-14 06:17:00,SystemResetWarning,0823.2,5.01,000.00,019.0,018.1,000.0,027.4,020.0,3.9,0004.3,0004.19,0007.49,0003.81
2024-01-14 06:18:00,SystemResetWarning,0823.3,5.00,000.00,018.9,017.9,000.0,027.4,020.1,3.9,0003.7,0004.21,0007.46,0003.81
2024-01-14 06:19:00,SystemResetWarning,0823.4,4.99,000.00,019.0,018.3,000.0,027.4,020.5,3.9,0003.2,0004.21,0007.45,0003.81
2024-01-14 06:20:00,SystemResetWarning,0823.4,5.01,000.00,019.1,019.0,000.0,027.4,021.0,3.8,0001.2,0004.17,0007.32,0003.80
2024-01-14 06:21:00,SystemResetWarning,0823.3,5.00,000.00,019.3,019.3,000.0,027.4,020.9,3.8,0000.0,0004.11,0007.09,0003.78
2024-01-14 06:22:00,SystemResetWarning,0823.2,4.98,000.00,019.2,019.1,000.0,027.4,020.4,3.8,0000.0,0004.11,0007.03,0003.78
2024-01-14 06:23:00,SystemResetWarning,0823.2,5.00,000.00,019.1,018.7,000.0,027.4,020.0,3.8,0000.0,0004.13,0007.09,0003.77
2024-01-14 06:24:00,SystemResetWarning,0823.1,5.00,000.00,019.0,018.4,000.0,027.4,020.0,3.8,0000.0,0004.18,0007.18,0003.79
2024-01-14 06:25:00,SystemResetWarning,0823.1,5.00,000.00,019.0,018.1,000.0,027.4,020.0,3.8,0000.0,0004.21,0007.41,0003.81
2024-01-14 06:26:00,SystemResetWarning,0823.0,4.99,000.00,019.0,017.9,000.0,027.5,020.0,3.8,0000.0,0004.23,0007.43,0003.83
2024-01-14 06:27:00,SystemResetWarning,0823.1,5.01,000.00,019.0,018.0,000.0,027.4,020.3,3.8,0000.0,0004.24,0007.40,0003.83
2024-01-14 06:28:00,SystemResetWarning,0823.2,5.02,000.00,019.1,018.6,000.0,027.4,020.7,3.8,0000.0,0004.27,0007.42,0003.85
2024-01-14 06:29:00,SystemResetWarning,0823.3,4.99,000.00,019.2,019.2,000.0,027.4,021.0,3.8,0000.0,0004.27,0007.36,0003.86
2024-01-14 06:30:00,SystemResetWarning,0823.1,4.99,000.00,019.2,019.2,000.0,027.4,020.6,3.7,0000.0,0004.29,0007.37,0003.87
2024-01-14 06:31:00,SystemResetWarning,0823.1,5.00,000.00,019.1,018.9,000.0,027.4,020.1,3.8,0000.0,0004.29,0007.37,0003.88
2024-01-14 06:32:00,SystemResetWarning,0823.0,5.00,000.00,019.1,018.5,000.0,027.4,020.0,3.8,0000.0,0004.32,0007.85,0003.90
2024-01-14 06:33:00,SystemResetWarning,0823.1,5.00,000.00,019.0,018.2,000.0,027.4,020.0,3.8,0000.0,0004.34,0008.45,0003.91
2024-01-14 06:34:00,SystemResetWarning,0823.1,4.99,000.00,019.0,018.0,000.0,027.5,020.0,3.8,0000.0,0004.34,0008.45,0003.92
2024-01-14 06:35:00,SystemResetWarning,0823.2,5.01,000.00,019.0,018.0,000.0,027.4,020.3,3.8,0000.0,0004.31,0008.35,0003.91
2024-01-14 06:36:00,SystemResetWarning,0823.3,5.01,000.00,019.1,018.6,000.0,027.4,020.7,3.7,0000.0,0004.30,0008.03,0003.92
2024-01-14 06:37:00,SystemResetWarning,0823.1,5.00,000.00,019.2,019.3,000.0,027.4,021.0,3.7,0000.0,0004.29,0007.99,0003.93
2024-01-14 06:38:00,SystemResetWarning,0823.0,4.98,000.00,019.3,019.3,000.0,027.4,020.7,3.7,0000.0,0004.31,0008.00,0003.96
2024-01-14 06:39:00,SystemResetWarning,0823.0,4.99,000.00,019.2,019.0,000.0,027.4,020.3,3.7,0000.0,0004.32,0008.11,0003.98
2024-01-14 06:40:00,SystemResetWarning,0823.0,5.01,000.00,019.1,018.7,000.0,027.4,020.0,3.7,0000.0,0004.36,0008.28,0004.01
2024-01-14 06:41:00,SystemResetWarning,0822.9,5.00,000.00,019.0,018.3,000.0,027.4,020.0,3.7,0000.0,0004.39,0008.63,0004.03
2024-01-14 06:42:00,SystemResetWarning,0823.0,4.99,000.00,019.0,018.1,000.0,027.5,020.0,3.7,0000.0,0004.39,0008.71,0004.06
2024-01-14 06:43:00,SystemResetWarning,0822.9,5.01,000.00,019.0,017.9,000.0,027.4,020.1,3.7,0000.0,0004.44,0009.12,0004.08
2024-01-14 06:44:00,SystemResetWarning,0823.1,5.01,000.00,019.0,018.4,000.0,027.4,020.5,3.7,0000.0,0004.46,0008.46,0004.10
2024-01-14 06:45:00,SystemResetWarning,0822.8,5.00,000.00,019.2,019.0,000.0,027.4,020.9,3.6,0000.0,0004.50,0008.59,0004.12
2024-01-14 06:46:00,SystemResetWarning,0822.9,4.98,000.00,019.2,019.0,000.0,027.4,020.6,3.6,0000.0,0004.52,0008.60,0004.14
2024-01-14 06:47:00,SystemResetWarning,0822.9,4.99,000.00,019.1,018.8,000.0,027.4,020.2,3.6,0000.0,0004.54,0008.60,0004.16
2024-01-14 06:48:00,SystemResetWarning,0823.2,5.01,000.00,019.0,018.5,000.0,027.4,020.0,3.6,0000.0,0004.56,0008.65,0004.18
2024-01-14 06:49:00,SystemResetWarning,0823.0,5.01,000.00,019.0,018.2,000.0,027.4,020.0,3.6,0000.9,0004.61,0008.75,0004.20
2024-01-14 06:50:00,SystemResetWarning,0823.2,5.00,000.00,018.9,018.0,000.0,027.4,020.0,3.6,0002.0,0004.65,0008.80,0004.21
2024-01-14 06:51:00,SystemResetWarning,0823.2,5.00,000.00,018.9,017.8,000.0,027.4,020.1,3.6,0004.6,0004.66,0008.79,0004.23
2024-01-14 06:52:00,SystemResetWarning,0823.2,5.01,000.00,019.0,018.3,000.0,027.4,020.5,3.6,0004.0,0004.69,0008.53,0004.25
2024-01-14 06:53:00,SystemResetWarning,0823.1,5.00,000.00,019.1,018.9,000.0,027.4,020.8,3.6,0004.2,0004.73,0008.51,0004.28
2024-01-14 06:54:00,SystemResetWarning,0823.0,4.99,000.00,019.1,018.9,000.0,027.4,020.4,3.6,0004.2,0004.71,0007.94,0004.31
2024-01-14 06:55:00,SystemResetWarning,0823.0,4.99,000.00,019.0,018.6,000.0,027.4,020.0,3.6,0004.5,0004.74,0008.21,0004.35
2024-01-14 06:56:00,SystemResetWarning,0822.9,5.01,000.00,019.0,018.3,000.0,027.4,020.0,3.6,0004.4,0004.73,0008.06,0004.38
2024-01-14 06:57:00,SystemResetWarning,0823.1,5.00,000.00,018.9,018.1,000.0,027.4,020.0,3.6,0003.9,0004.78,0008.16,0004.41
2024-01-14 06:58:00,SystemResetWarning,0823.2,5.00,000.00,018.9,017.9,000.0,027.4,020.0,3.6,0003.8,0004.80,0008.20,0004.43
2024-01-14 06:59:00,SystemResetWarning,0823.1,5.00,000.00,018.9,017.8,000.0,027.4,020.1,3.6,0003.6,0004.82,0008.76,0004.45
